When you browse on this site, cookies collect data to enhance your experience and personalize the content and advertising you see.
Visit our Privacy Policy to learn more. By continuing to use the site, you agree to this use of cookies and data.
  • In Hungary
  • List of Countries
  • For 7 days
  • Water Temperature
  • Satellite Maps
  • Weather Map
  • News
  • Weather Widgets
  • user-avatar
    Login

    Hourly Weather Dinan

    Today, 18 February, Monday

    Time Temperature Precipitation Wind Pressure Humidity
    00:00 +8°C° 0 mm 3 mps 759 mmHg 94%
    01:00 +7°C° 0 mm 2 mps 759 mmHg 94%
    02:00 +7°C° 0 mm 2 mps 758 mmHg 94%
    03:00 +7°C° 0 mm 2 mps 758 mmHg 94%
    04:00 +7°C° 0 mm 2 mps 758 mmHg 94%
    05:00 +6°C° 0 mm 2 mps 758 mmHg 94%
    06:00 +6°C° 0 mm 2 mps 758 mmHg 93%
    07:00 +7°C° 0 mm 2 mps 758 mmHg 92%
    08:00 +7°C° 0 mm 3 mps 758 mmHg 91%
    09:00 +7°C° 0 mm 3 mps 757 mmHg 90%
    10:00 +8°C° 0 mm 3 mps 757 mmHg 86%
    11:00 +10°C° 0 mm 3 mps 757 mmHg 82%
    12:00 +11°C° 0 mm 3 mps 758 mmHg 78%
    13:00 +10°C° 0.3 mm 2 mps 757 mmHg 81%
    14:00 +9°C° 0.3 mm 2 mps 757 mmHg 84%
    15:00 +9°C° 0.3 mm 2 mps 757 mmHg 86%
    16:00 +8°C° 0.1 mm 2 mps 757 mmHg 88%
    17:00 +8°C° 0.1 mm 2 mps 758 mmHg 90%
    18:00 +7°C° 0.1 mm 2 mps 758 mmHg 91%
    19:00 +7°C° 0 mm 2 mps 758 mmHg 92%
    20:00 +7°C° 0 mm 3 mps 759 mmHg 92%
    21:00 +7°C° 0 mm 3 mps 759 mmHg 93%
    22:00 +5°C° 0 mm 3 mps 760 mmHg 92%
    23:00 +5°C° 0 mm 3 mps 760 mmHg 91%

    Tomorrow, 19 February, Tuesday

    Time Temperature Precipitation Wind Pressure Humidity
    00:00 +4°C° 0 mm 3 mps 760 mmHg 91%
    01:00 +4°C° 0 mm 3 mps 760 mmHg 90%
    02:00 +4°C° 0 mm 3 mps 761 mmHg 90%
    03:00 +5°C° 0 mm 2 mps 761 mmHg 90%
    04:00 +4°C° 0 mm 2 mps 761 mmHg 90%
    05:00 +4°C° 0 mm 2 mps 761 mmHg 90%
    06:00 +3°C° 0 mm 2 mps 761 mmHg 90%
    07:00 +4°C° 0 mm 2 mps 761 mmHg 88%
    08:00 +5°C° 0 mm 2 mps 761 mmHg 85%
    09:00 +6°C° 0 mm 2 mps 762 mmHg 83%
    10:00 +7°C° 0 mm 3 mps 762 mmHg 77%
    11:00 +9°C° 0 mm 3 mps 762 mmHg 71%
    12:00 +10°C° 0 mm 3 mps 762 mmHg 65%
    13:00 +10°C° 0 mm 3 mps 761 mmHg 64%
    14:00 +11°C° 0 mm 3 mps 761 mmHg 62%
    15:00 +11°C° 0 mm 3 mps 761 mmHg 61%
    16:00 +9°C° 0 mm 3 mps 761 mmHg 68%
    17:00 +8°C° 0 mm 3 mps 761 mmHg 75%
    18:00 +5°C° 0 mm 3 mps 761 mmHg 81%
    19:00 +5°C° 0 mm 3 mps 761 mmHg 84%
    20:00 +4°C° 0 mm 3 mps 761 mmHg 87%
    21:00 +4°C° 0 mm 3 mps 761 mmHg 89%
    22:00 +3°C° 0 mm 3 mps 761 mmHg 90%
    23:00 +3°C° 0 mm 4 mps 761 mmHg 91%

    Day after tomorrow, 20 February, Wednesday

    Time Temperature Precipitation Wind Pressure Humidity
    00:00 +3°C° 0 mm 4 mps 761 mmHg 92%
    01:00 +3°C° 0 mm 4 mps 761 mmHg 93%
    02:00 +3°C° 0 mm 4 mps 761 mmHg 94%
    03:00 +3°C° 0 mm 4 mps 761 mmHg 95%
    04:00 +3°C° 0 mm 4 mps 761 mmHg 95%
    05:00 +3°C° 0 mm 4 mps 761 mmHg 95%
    06:00 +3°C° 0 mm 4 mps 761 mmHg 96%
    07:00 +4°C° 0 mm 4 mps 761 mmHg 94%
    08:00 +5°C° 0 mm 5 mps 761 mmHg 92%
    09:00 +6°C° 0 mm 5 mps 762 mmHg 90%
    10:00 +7°C° 0 mm 5 mps 762 mmHg 86%
    11:00 +9°C° 0 mm 5 mps 762 mmHg 82%
    12:00 +10°C° 0 mm 5 mps 762 mmHg 78%
    13:00 +10°C° 0 mm 5 mps 762 mmHg 78%
    14:00 +10°C° 0 mm 5 mps 762 mmHg 77%
    15:00 +12°C° 0 mm 4 mps 762 mmHg 77%
    16:00 +10°C° 0 mm 4 mps 762 mmHg 81%
    17:00 +8°C° 0 mm 4 mps 762 mmHg 86%
    18:00 +8°C° 0 mm 3 mps 763 mmHg 91%
    19:00 +8°C° 0 mm 3 mps 763 mmHg 93%
    20:00 +7°C° 0 mm 3 mps 763 mmHg 94%
    21:00 +7°C° 0 mm 3 mps 763 mmHg 96%
    22:00 +5°C° 0 mm 3 mps 764 mmHg 96%
    23:00 +5°C° 0 mm 3 mps 764 mmHg 96%

    21 February, Thursday

    Time Temperature Precipitation Wind Pressure Humidity
    00:00 +5°C° 0 mm 3 mps 764 mmHg 96%
    01:00 +5°C° 0 mm 3 mps 764 mmHg 96%
    02:00 +4°C° 0 mm 3 mps 764 mmHg 95%
    03:00 +4°C° 0 mm 3 mps 764 mmHg 95%
    04:00 +4°C° 0 mm 3 mps 764 mmHg 94%
    05:00 +4°C° 0 mm 3 mps 765 mmHg 94%
    06:00 +4°C° 0 mm 3 mps 765 mmHg 93%
    07:00 +5°C° 0 mm 4 mps 765 mmHg 91%
    08:00 +6°C° 0 mm 4 mps 765 mmHg 88%
    09:00 +6°C° 0 mm 4 mps 766 mmHg 85%
    10:00 +8°C° 0 mm 4 mps 766 mmHg 81%
    11:00 +11°C° 0 mm 4 mps 766 mmHg 77%
    12:00 +13°C° 0 mm 4 mps 766 mmHg 72%
    13:00 +13°C° 0 mm 4 mps 766 mmHg 70%
    14:00 +14°C° 0 mm 3 mps 766 mmHg 68%
    15:00 +14°C° 0 mm 3 mps 766 mmHg 66%
    16:00 +13°C° 0 mm 3 mps 766 mmHg 72%
    17:00 +11°C° 0 mm 3 mps 767 mmHg 78%
    18:00 +10°C° 0 mm 2 mps 767 mmHg 84%
    19:00 +9°C° 0 mm 3 mps 767 mmHg 85%
    20:00 +8°C° 0 mm 3 mps 768 mmHg 87%
    21:00 +8°C° 0 mm 3 mps 768 mmHg 88%
    22:00 +8°C° 0 mm 3 mps 768 mmHg 89%
    23:00 +8°C° 0 mm 3 mps 768 mmHg 90%

    22 February, Friday

    Time Temperature Precipitation Wind Pressure Humidity
    00:00 +7°C° 0 mm 3 mps 769 mmHg 92%
    01:00 +7°C° 0 mm 3 mps 769 mmHg 92%
    02:00 +6°C° 0 mm 4 mps 769 mmHg 92%
    03:00 +6°C° 0 mm 4 mps 769 mmHg 93%
    04:00 +6°C° 0 mm 4 mps 769 mmHg 92%
    05:00 +6°C° 0 mm 4 mps 769 mmHg 91%
    06:00 +5°C° 0 mm 4 mps 769 mmHg 91%
    07:00 +6°C° 0 mm 4 mps 770 mmHg 87%
    08:00 +7°C° 0 mm 4 mps 770 mmHg 83%
    09:00 +8°C° 0 mm 4 mps 771 mmHg 79%
    10:00 +11°C° 0 mm 4 mps 771 mmHg 76%
    11:00 +13°C° 0 mm 4 mps 771 mmHg 72%
    12:00 +15°C° 0 mm 4 mps 771 mmHg 68%
    13:00 +15°C° 0 mm 4 mps 771 mmHg 67%
    14:00 +17°C° 0 mm 4 mps 770 mmHg 67%
    15:00 +17°C° 0 mm 4 mps 770 mmHg 66%
    16:00 +15°C° 0 mm 4 mps 770 mmHg 73%
    17:00 +13°C° 0 mm 4 mps 770 mmHg 80%
    18:00 +11°C° 0 mm 3 mps 770 mmHg 87%
    19:00 +10°C° 0 mm 3 mps 770 mmHg 88%
    20:00 +10°C° 0 mm 3 mps 771 mmHg 88%
    21:00 +9°C° 0 mm 3 mps 771 mmHg 89%
    22:00 +8°C° 0 mm 3 mps 771 mmHg 89%
    23:00 +8°C° 0 mm 3 mps 771 mmHg 89%

    23 February, Saturday

    Time Temperature Precipitation Wind Pressure Humidity
    00:00 +7°C° 0 mm 3 mps 771 mmHg 89%
    01:00 +7°C° 0 mm 3 mps 771 mmHg 89%
    02:00 +7°C° 0 mm 3 mps 771 mmHg 89%
    03:00 +7°C° 0 mm 3 mps 770 mmHg 89%
    04:00 +5°C° 0 mm 3 mps 770 mmHg 89%
    05:00 +5°C° 0 mm 3 mps 770 mmHg 88%
    06:00 +5°C° 0 mm 3 mps 770 mmHg 88%
    07:00 +7°C° 0 mm 3 mps 770 mmHg 84%
    08:00 +7°C° 0 mm 4 mps 770 mmHg 80%
    09:00 +10°C° 0 mm 4 mps 770 mmHg 76%
    10:00 +12°C° 0 mm 4 mps 770 mmHg 72%
    11:00 +13°C° 0 mm 4 mps 770 mmHg 69%
    12:00 +15°C° 0 mm 4 mps 770 mmHg 65%
    13:00 +17°C° 0 mm 3 mps 770 mmHg 65%
    14:00 +17°C° 0 mm 3 mps 770 mmHg 65%
    15:00 +18°C° 0 mm 3 mps 769 mmHg 65%
    16:00 +16°C° 0 mm 3 mps 769 mmHg 72%
    17:00 +14°C° 0 mm 3 mps 769 mmHg 79%
    18:00 +13°C° 0 mm 2 mps 769 mmHg 86%
    19:00 +12°C° 0 mm 2 mps 770 mmHg 87%
    20:00 +10°C° 0 mm 3 mps 770 mmHg 89%
    21:00 +10°C° 0 mm 3 mps 770 mmHg 90%
    22:00 +9°C° 0 mm 3 mps 770 mmHg 90%
    23:00 +9°C° 0 mm 2 mps 770 mmHg 91%
    Show more